User: anonymous   Login
Location: Arrodets-la-Barthe
(43.0306°N, 0.2829°E)
Time: 15:44:27
(UTC+00:00)
Language:

Meteor 1-21 Rocket - Orbit

View from above orbital plane
View from above orbital plane
View from above satellite
View from above satellite

Ground track
Ground track

The orbit data is extracted from the following two-line orbital elements,

1  7715U 75023B   22022.10685163 -.00000109  00000-0 -72582-4 0  9995
2  7715  81.2199  39.6440 0053064  86.9989 273.7250 14.06812583401879
Epoch (UTC): 22 January 2022 02:33:51
Eccentricity: 0.0053064
inclination: 81.2199°
perigee height: 832 km
apogee height: 909 km
right ascension of ascending node: 39.6440°
argument of perigee: 86.9989°
revolutions per day: 14.06812583
mean anomaly at epoch: 273.7250°
orbit number at epoch: 40187

The dashed part of the orbit path shows where the satellite is in the earth's shadow,  

DLR